Location: Boulin
(43.2500°N, 0.1333°E)
Time: 09:56:32
(UTC+00:00)

Gbstr 26 Del rocket - Pass Details

Date: 11 December 2025
Orbit: 490 x 1218 km, 51.8° (Epoch: 21 January)

Event Time Altitude Azimuth Distance (km) Brightness Sun altitude
Rises 17:27:57 0° 242° (WSW) 2,868 8.6 -11.3°
Reaches altitude 10° 17:30:23 10° 245° (WSW) 1,875 7.1 -11.7°
Maximum altitude 17:34:32 69° 329° (NNW) 561 2.9 -12.4°
Enters shadow 17:37:06 19° 50° (NE) 1,231 4.0 -12.8°
